Hourly Data Report for March 15, 2012

All times are specified in Local Standard Time (LST). Add 1 hour to adjust for Daylight Saving Time where and when it is observed.

MIRAMICHI RCS
NEW BRUNSWICK

47°00'34.000" N
65°27'54.000" W
33.00 m
8100989
71744
ACQ

Download Data

Hourly Data (March 2012)
Hourly Data Report for March 15, 2012
TIME Temp Definition
°C
Dew Point Temp Definition
°C
Rel Hum Definition
%
Wind Dir Definition
10's deg

Wind Spd Definition
km/h
Visibility Definition
km
Stn Press Definition
kPa
Hmdx Definition


Wind Chill Definition


Weather Definition


00:00 -3.2 -4.2 93 5 22   102.62   -10 LegendNANA
01:00 -3.1 -4.2 92 5 22   102.61   -9 LegendNANA
02:00 -3.0 -3.9 93 5 20   102.59   -9 LegendNANA
03:00 -3.0 -3.8 94 5 22   102.56   -9 LegendNANA
04:00 -2.9 -3.7 94 5 24   102.55   -10 LegendNANA
05:00 -2.9 -3.8 93 5 19   102.58   -9 LegendNANA
06:00 -3.0 -3.9 93 4 20   102.59   -9 LegendNANA
07:00 -2.9 -3.8 93 4 17   102.64   -8 LegendNANA
08:00 -2.8 -3.7 94 5 15   102.68   -8 LegendNANA
09:00 -2.5 -3.3 94 5 15   102.70   -7 LegendNANA
10:00 -1.9 -3.2 91 5 20   102.70   -8 LegendNANA
11:00 -1.6 -4.2 82 5 26   102.68   -8 LegendNANA
12:00 -1.1 -4.3 79 6 22   102.66   -7 LegendNANA
13:00 -1.1 -4.6 77 6 22   102.61   -7 LegendNANA
14:00 -1.5 -4.7 79 6 22   102.57   -7 LegendNANA
15:00 -1.9 -5.2 78 5 20   102.57   -8 LegendNANA
16:00 -1.1 -7.4 62 5 15   102.53   -6 LegendNANA
17:00 -1.8 -5.4 76 7 19   102.51   -7 LegendNANA
18:00 -2.1 -6.7 71 7 13   102.52   -7 LegendNANA
19:00 -3.5 -6.3 81 7 9   102.54   -7 LegendNANA
20:00 -4.8 -6.9 85 7 6   102.54   -8 LegendNANA
21:00 -5.4 -6.5 92 32 6   102.53   -8 LegendNANA
22:00 -8.1 -9.4 90 1 4   102.48   -10 LegendNANA
23:00 -6.1 -7.3 91 1 6   102.40   -9 LegendNANA

Notes on Data Quality.

Legend

  • E = Estimated
  • M = Missing
  • NA = Not Available
Date modified: